Weather History for KGJT - September, 2013

Change the Weather History Date:

Friday, September 6, 2013

  Actual Average Record
Temperature  
Mean Temperature 80 °F 70 °F  
Max Temperature 94 °F 84 °F 97 °F (1977)
Min Temperature 66 °F 56 °F 47 °F (1961)
Degree Days  
Heating Degree Days 0 1  
Month to date heating degree days 0 2  
Since 1 July heating degree days 0 5  
Cooling Degree Days 15 6  
Month to date cooling degree days 90 38  
Year to date cooling degree days 1216 1057  
Growing Degree Days 30 (Base 50)    
Moisture  
Dew Point 48 °F    
Average Humidity 39    
Maximum Humidity 63    
Minimum Humidity 15    
Precipitation  
Precipitation 0.00 in 0.04 in 0.74 in (1939)
Month to date precipitation T 0.22  
Year to date precipitation 5.97 6.07  
Snow  
Snow 0.00 in 0.00 in 0.00 in (2013)
Month to date snowfall 0.0 0.0  
Since 1 July snowfall 0.0 0.0  
Since 1 September snowfall 0.0 0.0  
Snow Depth 0.00 in    
Sea Level Pressure  
Sea Level Pressure 29.92 in    
Wind  
Wind Speed 8 mph (ESE)    
Max Wind Speed 18 mph    
Max Gust Speed 24 mph    
Visibility 10 miles    
Events      
T = Trace of Precipitation, MM = Missing Value Source: NWS Daily Summary

Daily Weather History Graph

Daily Weather History Graph

Search for Another Location

Airport or City:

Trip Planner

Search our weather history database for the weather conditions in past years. The results will help you decide how hot, cold, wet, or windy it might be!

Date:

Astronomy

Sep. 06, 2013 Rise Set
Actual Time 6:47 AM MDT 7:36 PM MDT
Civil Twilight 6:20 AM MDT 8:03 PM MDT
Nautical Twilight 5:48 AM MDT 8:35 PM MDT
Astronomical Twilight 5:15 AM MDT 9:08 PM MDT
Moon 8:02 AM MDT (9/6) 8:03 PM MDT (9/6)
Length of Visible Light 13h 43m
Length of Day
12h 48m
New Moon, 2% of the Moon is Illuminated
Sep 6
New Moon
Sep 12
First Quarter
Sep 19
Full
Sep 26
Last Quarter
Oct 4
New

Hourly Weather History & Observations

Time (MDT) Temp. Dew Point Humidity Pressure Visibility Wind Dir Wind Speed Gust Speed Precip Events Conditions
12:53 AM 79.0 °F 52.0 °F 39% 29.94 in 10.0 mi East 11.5 mph - N/A   Scattered Clouds
1:53 AM 75.9 °F 52.0 °F 43% 29.95 in 10.0 mi SE 10.4 mph - N/A   Clear
2:53 AM 73.0 °F 52.0 °F 48% 29.96 in 10.0 mi ESE 9.2 mph - N/A   Clear
3:53 AM 70.0 °F 52.0 °F 53% 29.96 in 10.0 mi SSE 8.1 mph - N/A   Clear
4:53 AM 68.0 °F 54.0 °F 61% 29.97 in 10.0 mi ESE 9.2 mph - N/A   Clear
5:53 AM 68.0 °F 53.1 °F 59% 29.98 in 10.0 mi ESE 6.9 mph - N/A   Clear
6:53 AM 66.9 °F 54.0 °F 63% 30.00 in 10.0 mi SE 10.4 mph - N/A   Clear
7:53 AM 71.1 °F 54.0 °F 55% 30.01 in 10.0 mi SE 8.1 mph - N/A   Clear
8:53 AM 73.9 °F 55.9 °F 53% 30.03 in 10.0 mi SSE 11.5 mph - N/A   Clear
9:53 AM 78.1 °F 53.1 °F 42% 30.03 in 10.0 mi SE 11.5 mph - N/A   Clear
10:53 AM 82.0 °F 52.0 °F 35% 29.99 in 10.0 mi ESE 8.1 mph - N/A   Partly Cloudy
11:53 AM 84.0 °F 50.0 °F 31% 29.97 in 10.0 mi Variable 4.6 mph - N/A   Scattered Clouds
12:53 PM 87.1 °F 46.0 °F 24% 29.93 in 10.0 mi Calm Calm - N/A   Scattered Clouds
1:53 PM 91.9 °F 39.9 °F 16% 29.90 in 10.0 mi West 6.9 mph - N/A   Clear
2:53 PM 93.9 °F 44.1 °F 18% 29.87 in 10.0 mi West 9.2 mph - N/A   Clear
3:53 PM 93.0 °F 39.9 °F 16% 29.85 in 10.0 mi WNW 8.1 mph - N/A   Clear
4:53 PM 91.9 °F 41.0 °F 17% 29.83 in 10.0 mi West 6.9 mph - N/A   Clear
5:53 PM 91.9 °F 39.9 °F 16% 29.81 in 10.0 mi WNW 5.8 mph - N/A   Clear
6:53 PM 89.1 °F 43.0 °F 20% 29.81 in 10.0 mi West 4.6 mph - N/A   Clear
7:53 PM 84.0 °F 46.0 °F 26% 29.81 in 10.0 mi Calm Calm - N/A   Clear
8:53 PM 75.9 °F 43.0 °F 31% 29.85 in 10.0 mi NE 4.6 mph - N/A   Clear
9:53 PM 79.0 °F 42.1 °F 27% 29.86 in 10.0 mi East 11.5 mph - N/A   Clear
10:53 PM 81.0 °F 44.1 °F 27% 29.85 in 10.0 mi ENE 9.2 mph - N/A   Clear
11:53 PM 77.0 °F 45.0 °F 32% 29.86 in 10.0 mi East 8.1 mph - N/A   Clear